Location: Edinburgh
(55.9500°N, 3.1600°W)
Time: 15:02:46
(UTC+01:00)

Envisat - Pass Details

Date: 23 February 2019
Orbit: 764 x 766 km, 98.1° (Epoch: 16 October)

Event Time Altitude Azimuth Distance (km) Brightness Sun altitude
Rises 20:23:45 0° 219° (SW) 3,224 6.5 -24.3°
Reaches altitude 10° 20:27:06 10° 242° (WSW) 2,304 6.0 -24.7°
Maximum altitude 20:29:56 15° 277° (W) 1,990 6.0 -25.1°
Drops below altitude 10° 20:32:47 10° 311° (NW) 2,313 6.4 -25.4°
Sets 20:36:10 0° 335° (NNW) 3,246 6.9 -25.9°
